Weather History for Niagara Falls, NY

Change the Weather History Date:

Tuesday, December 31, 2013

  Actual Average Record
Temperature  
Mean Temperature 16 °F -  
Max Temperature 19 °F 31 °F 53 °F (2004)
Min Temperature 12 °F 19 °F 8 °F (1996)
Degree Days  
Heating Degree Days 50    
Moisture  
Dew Point 12 °F    
Average Humidity 76    
Maximum Humidity 93    
Minimum Humidity 54    
Precipitation  
Precipitation 0.03 in - - ()
Snow  
Snow 0.00 in - - ()
Snow Depth 3.00 in    
Sea Level Pressure  
Sea Level Pressure 30.05 in    
Wind  
Wind Speed 9 mph (WSW)    
Max Wind Speed 30 mph    
Max Gust Speed 41 mph    
Visibility 4 miles    
Events Fog , Snow    
Averages and records for this station are not official NWS values.
T = Trace of Precipitation, MM = Missing Value Source: NWS Daily Summary

Daily Weather History Graph

Daily Weather History Graph

Search for Another Location

Airport:

Trip Planner

Search our weather history database for the weather conditions in past years. The results will help you decide how hot, cold, wet, or windy it might be!

Date:

Astronomy

Dec. 31, 2013 Rise Set
Actual Time 7:47 AM EST 4:50 PM EST
Civil Twilight 7:15 AM EST 5:22 PM EST
Nautical Twilight 6:39 AM EST 5:58 PM EST
Astronomical Twilight 6:04 AM EST 6:33 PM EST
Moon 6:37 AM EST (12/31) 4:25 PM EST (12/31)
Length of Visible Light 10h 07m
Length of Day
9h 03m
Waning Crescent, 1% of the Moon is Illuminated
Dec 31
Waning Crescent
Jan 1
New
Jan 7
First Quarter
Jan 15
Full
Jan 24
Last Quarter

Hourly Weather History & Observations

Time (EST) Temp. Windchill Dew Point Humidity Pressure Visibility Wind Dir Wind Speed Gust Speed Precip Events Conditions
12:53 AM 17.1 °F 10.0 °F 9.0 °F 71% 30.18 in 7.0 mi SE 4.6 mph - 0.00 in Snow Light Snow
1:53 AM 17.1 °F 11.7 °F 10.9 °F 77% 30.15 in 5.0 mi ESE 3.5 mph - 0.00 in Snow Light Snow
2:31 AM 17.6 °F - 10.4 °F 73% 30.08 in 5.0 mi Calm Calm - 0.00 in Snow Light Snow
2:53 AM 17.1 °F - 12.0 °F 81% 30.14 in 7.0 mi Calm Calm - 0.00 in   Overcast
3:01 AM 17.6 °F 12.3 °F 12.2 °F 79% 30.08 in 7.0 mi SSE 3.5 mph - 0.00 in Snow Light Snow
3:53 AM 18.0 °F 11.1 °F 12.9 °F 81% 30.11 in 10.0 mi SSE 4.6 mph - 0.00 in   Overcast
4:53 AM 19.0 °F 12.3 °F 14.0 °F 81% 30.08 in 10.0 mi SSE 4.6 mph - N/A   Overcast
5:25 AM 19.4 °F 12.8 °F 12.2 °F 74% 30.00 in 2.5 mi South 4.6 mph - 0.00 in Snow Light Snow
5:53 AM 19.0 °F 9.0 °F 12.9 °F 77% 30.06 in 2.5 mi South 8.1 mph - 0.00 in Snow Light Snow
6:12 AM 17.6 °F 10.7 °F 12.2 °F 79% 29.99 in 1.5 mi South 4.6 mph - 0.00 in Snow Light Snow
6:32 AM 19.4 °F - 14.0 °F 80% 29.98 in 2.5 mi Calm Calm - 0.00 in Snow Light Snow
6:42 AM 19.4 °F - 14.0 °F 80% 29.98 in 3.0 mi Calm Calm - 0.00 in Snow Light Snow
6:50 AM 19.4 °F 14.3 °F 14.0 °F 80% 29.98 in 1.8 mi SE 3.5 mph - 0.00 in Snow Light Snow
6:53 AM 19.0 °F 12.3 °F 14.0 °F 81% 30.04 in 1.2 mi SE 4.6 mph - 0.00 in Snow Light Snow
7:00 AM 17.6 °F 12.3 °F 14.0 °F 86% 29.98 in 1.0 mi ESE 3.5 mph - 0.00 in Snow Light Snow
7:02 AM 17.6 °F 10.7 °F 15.8 °F 93% 29.97 in 1.5 mi ESE 4.6 mph - 0.00 in Snow Light Snow
7:24 AM 19.4 °F 10.4 °F 15.8 °F 86% 29.96 in 2.0 mi ESE 6.9 mph - 0.00 in Snow Light Snow
7:35 AM 19.4 °F 10.4 °F 15.8 °F 86% 29.95 in 0.8 mi ESE 6.9 mph - 0.00 in Snow Light Snow
7:40 AM 19.4 °F 10.4 °F 15.8 °F 86% 29.95 in 0.5 mi ESE 6.9 mph - 0.00 in Fog , Snow Snow
7:48 AM 19.4 °F 9.5 °F 15.8 °F 86% 29.94 in 0.2 mi ESE 8.1 mph - 0.00 in Fog , Snow Heavy Snow
7:53 AM 19.0 °F 10.0 °F 15.1 °F 85% 30.00 in 0.2 mi ESE 6.9 mph - 0.00 in Fog , Snow Heavy Snow
8:04 AM 19.4 °F 12.8 °F 15.8 °F 86% 29.94 in 0.2 mi SE 4.6 mph - 0.00 in Fog , Snow Heavy Snow
8:11 AM 17.6 °F 7.3 °F 15.8 °F 93% 29.94 in 0.1 mi SE 8.1 mph - 0.01 in Fog , Snow Heavy Snow
8:21 AM 17.6 °F 12.3 °F 15.8 °F 93% 29.94 in 0.5 mi Variable 3.5 mph - 0.03 in Fog , Snow Snow
8:25 AM 19.4 °F 9.5 °F 15.8 °F 86% 29.94 in 0.8 mi NNW 8.1 mph - 0.03 in Snow Light Snow
8:31 AM 19.4 °F 8.6 °F 15.8 °F 86% 29.93 in 1.0 mi NE 9.2 mph - 0.03 in Snow Light Snow
8:37 AM 19.4 °F 9.5 °F 15.8 °F 86% 29.93 in 1.5 mi ENE 8.1 mph - 0.03 in Snow Light Snow
8:42 AM 19.4 °F 11.5 °F 15.8 °F 86% 29.94 in 2.5 mi East 5.8 mph - 0.03 in Snow Light Snow
8:47 AM 19.4 °F 12.8 °F 15.8 °F 86% 29.94 in 2.0 mi ENE 4.6 mph - 0.03 in Snow Light Snow
8:53 AM 19.0 °F - 16.0 °F 88% 30.01 in 1.5 mi Calm Calm - 0.03 in Snow Light Snow
9:19 AM 19.4 °F 6.6 °F 15.8 °F 86% 29.95 in 1.8 mi NW 12.7 mph - 0.00 in Snow Light Snow
9:29 AM 19.4 °F 8.6 °F 15.8 °F 86% 29.96 in 0.8 mi NW 9.2 mph - 0.00 in Snow Light Snow
9:34 AM 19.4 °F 9.5 °F 15.8 °F 86% 29.96 in 2.0 mi NW 8.1 mph - 0.00 in Snow Light Snow
9:43 AM 19.4 °F 10.4 °F 15.8 °F 86% 29.97 in 2.0 mi WNW 6.9 mph - 0.00 in Snow Light Snow
9:53 AM 19.0 °F 10.0 °F 16.0 °F 88% 30.04 in 2.0 mi West 6.9 mph - N/A Snow Light Snow
10:01 AM 19.4 °F 9.5 °F 15.8 °F 86% 29.98 in 3.0 mi West 8.1 mph - 0.00 in Snow Light Snow
10:19 AM 19.4 °F 5.5 °F 15.8 °F 86% 29.99 in 7.0 mi West 15.0 mph 20.7 mph 0.00 in Snow Light Snow
10:40 AM 19.4 °F 2.8 °F 14.0 °F 80% 29.99 in 7.0 mi West 21.9 mph 28.8 mph 0.00 in Snow Light Snow
10:53 AM 19.9 °F 5.2 °F 12.9 °F 74% 30.06 in 3.0 mi West 17.3 mph 28.8 mph 0.00 in Snow Light Snow
11:30 AM 19.4 °F 3.2 °F 12.2 °F 74% 30.01 in 7.0 mi West 20.7 mph 28.8 mph 0.00 in Snow Light Snow
11:53 AM 19.0 °F 2.7 °F 10.9 °F 71% 30.08 in 7.0 mi West 20.7 mph 27.6 mph 0.00 in Snow Light Snow
12:13 PM 19.4 °F 3.2 °F 10.4 °F 68% 30.02 in 1.5 mi West 20.7 mph - 0.00 in Snow Light Snow
12:20 PM 19.4 °F 2.5 °F 10.4 °F 68% 30.03 in 1.0 mi West 23.0 mph 28.8 mph 0.00 in Snow Light Snow
12:24 PM 19.4 °F 2.5 °F 10.4 °F 68% 30.03 in 0.5 mi West 23.0 mph 29.9 mph 0.00 in Fog , Snow Snow
12:33 PM 17.6 °F -0.6 °F 12.2 °F 79% 30.03 in 2.5 mi West 25.3 mph 31.1 mph 0.00 in Snow Light Snow
12:37 PM 17.6 °F -0.6 °F 10.4 °F 73% 30.03 in 5.0 mi West 25.3 mph 31.1 mph 0.00 in Snow Light Snow
12:43 PM 17.6 °F 0.5 °F 8.6 °F 68% 30.04 in 7.0 mi West 21.9 mph 35.7 mph 0.00 in Snow Light Snow
12:53 PM 19.0 °F 1.6 °F 9.0 °F 65% 30.10 in 7.0 mi West 24.2 mph 34.5 mph N/A Snow Light Snow
1:03 PM 17.6 °F -1.6 °F 6.8 °F 63% 30.04 in 7.0 mi West 28.8 mph 38.0 mph 0.00 in Snow Blowing Snow
1:53 PM 18.0 °F -0.2 °F 6.1 °F 60% 30.13 in 7.0 mi West 25.3 mph 34.5 mph 0.00 in Snow Blowing Snow
2:30 PM 15.8 °F -3.4 °F 6.8 °F 68% 30.10 in 7.0 mi West 26.5 mph 38.0 mph 0.00 in Snow Light Snow
2:53 PM 17.1 °F -2.7 °F 6.1 °F 62% 30.19 in 7.0 mi West 29.9 mph 38.0 mph 0.00 in Snow Light Snow
3:14 PM 15.8 °F -3.4 °F 8.6 °F 73% 30.13 in 6.0 mi West 26.5 mph 41.4 mph 0.00 in Snow Blowing Snow
3:53 PM 15.1 °F -3.7 °F 3.9 °F 61% 30.22 in 8.0 mi WSW 24.2 mph 33.4 mph 0.00 in Snow Blowing Snow
4:53 PM 14.0 °F -3.9 °F 1.9 °F 59% 30.25 in 10.0 mi West 20.7 mph 28.8 mph N/A   Partly Cloudy
5:53 PM 12.9 °F -2.2 °F 1.9 °F 62% 30.26 in 10.0 mi West 13.8 mph - N/A   Partly Cloudy
6:53 PM 12.0 °F -3.4 °F 3.0 °F 67% 30.27 in 10.0 mi West 13.8 mph - N/A   Partly Cloudy
7:53 PM 15.1 °F -2.5 °F 1.0 °F 54% 30.29 in 10.0 mi West 20.7 mph 29.9 mph N/A   Partly Cloudy
8:53 PM 16.0 °F -0.4 °F 1.9 °F 54% 30.28 in 10.0 mi West 18.4 mph 25.3 mph N/A   Mostly Cloudy
9:53 PM 17.1 °F 1.5 °F 3.9 °F 56% 30.28 in 10.0 mi West 17.3 mph 27.6 mph N/A   Mostly Cloudy
10:53 PM 17.1 °F 1.5 °F 5.0 °F 59% 30.28 in 10.0 mi West 17.3 mph 26.5 mph N/A   Overcast
11:53 PM 18.0 °F 2.6 °F 6.1 °F 60% 30.29 in 10.0 mi West 17.3 mph 28.8 mph N/A   Mostly Cloudy